Regional Weather Roundup
Issued by NWS Goodland, KS

Home | Current Version | Previous Version | Graphics & Text | Print | Product List | Glossary On
Versions: 1 2 3 4 5 6 7 8 9 10 11 12 13 14 15 16 17 18 19 20 21 22 23 24 25 26 27 28 29 30 31 32 33 34 35 36 37 38 39 40 41 42 43 44 45 46 47 48 49 50
000
ASUS43 KGLD 232208
RWRGLD

GOODLAND FORECAST AREA HOURLY WEATHER ROUNDUP
NATIONAL WEATHER SERVICE GOODLAND KS
400 PM MDT SAT MAY 23 2015

...OFFICIAL OBSERVATIONS...

CITY           SKY/WX    TMP DP  RH WIND       PRES   REMARKS
GOODLAND KS    PTSUNNY   67  55  65 SE14G23   29.89F
HILL CITY KS   CLOUDY    65  56  72 SE18G28   29.94F
IMPERIAL NEB   PTSUNNY   64  52  64 SE16      29.92F
MCCOOK NEB     CLOUDY    67  54  63 SE18      29.93F
AKRON CO       CLOUDY    62  52  69 SE22G29   29.90S
BURLINGTON CO  CLOUDY    66  52  60 SE16      29.90F
LIMON CO       RAIN      48  43  82 SE15      29.97F
$$

...UNOFFICIAL OBSERVATIONS...

CITY           SKY/WX    TMP DP  RH WIND       PRES   REMARKS
COLBY KS       CLOUDY    66  59  77 SE20G25   29.92F
GOVE KS          N/A     65  32  29 MISG        N/A
LENORA KS        N/A     64  32  30 MISG        N/A
NORTON KS      PTSUNNY   64  54  68 E16G24    29.94F
SHARON SPRINGS   N/A     67  58  72 MISG        N/A
KIT CARSON CO    N/A     62  51  68 MISG        N/A
$$



USA.gov is the U.S. government's official web portal to all federal, state and local government web resources and services.